map of EGC home
EGC - Airport
Location
City:  Bergerac, Aquitaine, France
Name:Bergerac-Roumanière Airport
ICAO:LFBE
IATA:EGC

Details
Type:Airport (Aerodrome, Airfield)
Use:Public/Civil
Latitude:44°49'28"N (44.824431)
Longitude:0°31'14"E (0.520525)
Elevation:171 ft (52 m)
Variation:0.62°E (WMM2015v2 magnetic declination)
0.16° annual change
Runways:2
Longest:7234 × 148 ft (2205 × 45 m)

Time
Time Zone:UTC+1 (DST+2)
Local Time:

Weather
METAR:LFBE 041400Z AUTO 15002KT 9999 FEW046/// BKN056/// OVC068/// ///CB 05/00 Q1028 BECMG 4000 -RA BKN040
TAF:LFBE 041100Z 0412/0512 VRB02KT CAVOK
BECMG 0414/0416 17010KT 4000 -RA BKN040
BECMG 0417/0419 BKN010 BKN030
BECMG 0421/0423 VRB02KT 1400 BCFG OVC002
TEMPO 0501/0506 0400 FG VV///
BECMG 0506/0508 3000 BR OVC006

Related Locations
Nearby:
Farthest:CHT: 12273 mi / 19752 km
Waitangi [Tuuta], CIT, NZ

Find:

   beyond  
but within

Other Information
Maps:
NOTAMs:
Links:
Sources:

  
  • flag of France
  • flag of Aquitaine
  

Sectional Chart

Flight Planning
at skyvector.com

Satellite Image

Google Maps Satellite view

 

Copyright © 2004-2019 Karl L. Swartz. All rights reserved.
The Great Circle Mapper name and logo are trademarks of the Great Circle Mapper.
All other trademarks mentioned herein belong to their respective owners.
Please see credits for attibutions and further copyright information.

  Follow gcmap on Facebook Follow gcmap on Twitter GCmap on LinkedIn

hCard Microformat

Geo Microformat